Regional Weather Roundup
Issued by NWS

Home | Current Version | Previous Version | Graphics & Text | Print | Product List | Glossary On
Versions: 1 2 3 4 5 6 7 8 9 10 11 12 13 14 15 16 17 18 19 20 21 22 23 24 25 26 27
000
ASUS45 KCYS 242210
RWRWY

WYOMING REGIONAL WEATHER ROUNDUP
NATIONAL WEATHER SERVICE CHEYENNE WY
400 PM MDT SUN SEP 24 2017

NOTE:  "FAIR" INDICATES FEW OR NO CLOUDS BELOW 12,000 FEET
WITH NO SIGNIFICANT WEATHER AND/OR OBSTRUCTIONS TO VISIBILITY.

WYZ001-242300-
YELLOWSTONE NATIONAL PARK

CITY           SKY/WX    TMP DP  RH WIND       PRES   REMARKS
LK YELLOWSTONE NOT AVBL
W YELLOWSTONE  NOT AVBL

$$
WYZ002>013-054>058-071-098>099-242300-
NORTHERN WYOMING

CITY           SKY/WX    TMP DP  RH WIND       PRES   REMARKS
JACKSON        FAIR      48  32  53 NE10      29.98R
CODY           CLOUDY    46  32  58 N8        30.09F
GREYBULL       CLOUDY    51  38  60 NW9       30.04F
WORLAND        LGT RAIN  45  41  86 CALM      30.06S FOG
SHERIDAN       CLOUDY    47  40  76 E6        30.10S
BUFFALO        CLOUDY    43  35  73 N7        30.10S
GILLETTE       CLOUDY    44  39  82 N10       30.09S
HULETT         CLOUDY    43  39  87 N7        30.10S
NEWCASTLE      MOCLDY    48  39  71 E5        30.04S

$$
WYZ014>020-022>026-101>103-242300-
CENTRAL WYOMING

CITY           SKY/WX    TMP DP  RH WIND       PRES   REMARKS
BIG PINEY      PTSUNNY   40  36  86 NW3       30.01R
PINEDALE       FLURRIES  34  34 100 CALM      30.03S
DUBOIS         CLOUDY    37  32  81 SE13G18   30.03S WCI  29
LANDER         LGT RAIN  36  35  96 W6        30.08R FOG     WCI  31
RIVERTON       LGT RAIN  38  37  97 E7        30.08S WCI  33
CASPER         LGT RAIN  40  39  97 NE14      30.06S WCI  32
DOUGLAS        LGT RAIN  43  40  89 N8        30.06S FOG

$$
WYZ021-027>030-104>119-242300-
SOUTHERN WYOMING

CITY           SKY/WX    TMP DP  RH WIND       PRES   REMARKS
EVANSTON       LGT SNOW  35  35 100 N12       29.99R FOG     WCI  27
FORT BRIDGER   DRIZZLE   37  37 100 W7        30.01R WCI  31
ROCK SPRINGS   CLOUDY    42  35  76 NE18G29   29.97R
DIXON          MOCLDY    51  36  55 NE7       29.96F
RAWLINS        LGT RAIN  41  38  89 NE14      30.01R FOG
SARATOGA       FAIR      46  36  66 N13       29.98F
LARAMIE        CLOUDY    44  36  73 E16       29.98R
CHEYENNE       LGT RAIN  43  41  93 E10       30.01S FOG
TORRINGTON     CLOUDY    51  42  71 NE13      30.01S
PINE BLUFFS    CLOUDY    45  45 100 MISG      30.01F

$$




USA.gov is the U.S. government's official web portal to all federal, state and local government web resources and services.